TALLINN current weather conditions

sailwx.info

Wind from 150 at 8 knots

Air temperature 4.0° C
Visibility: greater than 4.3 NM
Dewpoint 3.0° C
Present weather: Light rain.

Last reported at 2016-Feb-11 03:20 UTC.
Time now 2016-Feb-11 04:36 UTC

Location: N 59°24' E 024°49'.
View on Google Maps.

See reports from other nearby stations

  
Tides and Currents Weather Stations Pressure Air Temp Water Temp Dewpoint Dewpoint Depression Visibility Wind Speed Wind Dir Waves Ship Positions
date/time (UTC)wind fromknots sea level pressurealtimeterstation pressurevisibilityair tempwater tempwave heightnotes
2016-Feb-11 03:20 150 8 4.3 4.0 Light rain.
2016-Feb-11 02:50 150 8 3.8 4.0 Rain.
2016-Feb-11 02:20 150 8 4.3 4.0 Light rain.
2016-Feb-11 01:50 150 7 5.4 4.0 Light rain.
2016-Feb-11 01:20 160 8 5.4 4.0 Light rain.
2016-Feb-11 00:50 170 8 5.4 4.0 Light rain.
2016-Feb-11 00:20 170 9 5.4 4.0 Light rain drizzle.
2016-Feb-10 23:50 170 7 4.9 4.0 Light drizzle.
2016-Feb-10 23:20 180 7 3.2 4.0 Drizzle.
2016-Feb-10 22:50 190 10 2.1 4.0 Drizzle. Mist.
2016-Feb-10 22:20 190 11 2.7 5.0 Drizzle. Mist.
2016-Feb-10 21:50 180 10 2.1 5.0 Drizzle. Mist.
2016-Feb-10 21:20 180 11 2.1 5.0 Drizzle. Mist.
2016-Feb-10 20:50 170 10 3.2 5.0 Drizzle.
2016-Feb-10 20:20 170 11 3.2 5.0 Drizzle.
2016-Feb-10 19:50 170 11 4.9 5.0 Light drizzle.
2016-Feb-10 19:20 170 11 4.9 5.0 Light drizzle.
2016-Feb-10 18:50 160 11 4.9 5.0 Light drizzle.
2016-Feb-10 18:20 170 11 2.7 6.0 Drizzle rain. Mist.
2016-Feb-10 17:50 170 10 gusting 20 5.4 6.0 Light rain.
2016-Feb-10 17:20 170 12 5.4 6.0
2016-Feb-10 16:50 160 12 5.4 6.0
2016-Feb-10 16:20 150 12 4.9 5.0 Light drizzle.
2016-Feb-10 15:50 150 12 5.4 5.0 Light rain.
2016-Feb-10 15:20 150 10 5.4 5.0
2016-Feb-10 14:50 150 11 5.4 5.0
2016-Feb-10 14:20 150 10 4.3 5.0 Light rain.
2016-Feb-10 13:50 150 12 5.4 5.0
2016-Feb-10 13:20 150 10 5.4 5.0
2016-Feb-10 12:50 150 11 5.4 5.0
2016-Feb-10 12:20 150 11 5.4 5.0 Light rain.
2016-Feb-10 11:50 140 12 4.9 5.0 Light rain.
2016-Feb-10 11:20 140 12 5.4 5.0 Light rain.
2016-Feb-10 10:50 150 11 5.4 4.0 Light rain.
2016-Feb-10 10:20 140 12 5.4 4.0 Light rain.
2016-Feb-10 09:50 150 12 5.4 4.0 Light rain.
2016-Feb-10 09:20 140 11 5.4 4.0 Light rain.
2016-Feb-10 08:50 130 11 5.4 3.0
2016-Feb-10 08:20 110 11 5.4 3.0
2016-Feb-10 07:50 110 10 3.8 3.0 Rain.
2016-Feb-10 07:20 130 9 5.4 3.0 Light rain.
2016-Feb-10 06:50 120 9 5.4 3.0
2016-Feb-10 06:20 130 9 2.0
2016-Feb-10 05:50 140 8 2.0
2016-Feb-10 05:20 150 8 5.4 2.0
2016-Feb-10 04:50 150 8 5.4 2.0
2016-Feb-10 04:20 150 8 5.4 2.0
2016-Feb-10 03:50 150 8 2.0
2016-Feb-10 03:20 160 8 2.0
2016-Feb-10 02:50 170 7 5.4 2.0
2016-Feb-10 02:20 180 7 5.4 3.0
2016-Feb-10 01:50 190 10 5.4 3.0
2016-Feb-10 01:20 190 9 5.4 3.0
2016-Feb-10 00:50 200 10 5.4 4.0
2016-Feb-10 00:20 200 12 5.4 4.0
2016-Feb-09 23:50 200 12 5.4 4.0
2016-Feb-09 23:20 200 11 5.4 4.0
2016-Feb-09 22:50 200 10 5.4 4.0
2016-Feb-09 22:20 200 11 5.4 4.0
2016-Feb-09 21:50 210 9 5.4 4.0
2016-Feb-09 21:20 210 11 5.4 4.0
2016-Feb-09 20:50 200 10 5.4 4.0
2016-Feb-09 20:20 200 11 5.4 4.0 Light drizzle.
2016-Feb-09 19:50 210 11 5.4 4.0 Light drizzle.
2016-Feb-09 19:20 210 13 5.4 4.0
2016-Feb-09 18:50 200 12 3.8 4.0 Rain drizzle.
2016-Feb-09 18:20 200 11 3.8 4.0 Rain drizzle.
2016-Feb-09 17:50 200 12 4.3 4.0 Light rain.
2016-Feb-09 17:20 190 11 5.4 4.0 Light rain.
2016-Feb-09 16:50 190 12 4.9 4.0 Light rain showers.
2016-Feb-09 16:20 180 13 5.4 5.0 Light rain.
2016-Feb-09 15:50 180 10 5.4 5.0 Light rain.
2016-Feb-09 15:20 180 12 5.4 5.0
2016-Feb-09 14:50 180 12 5.4 5.0 Light rain.
2016-Feb-09 14:20 180 10 4.9 5.0 Light rain showers.
2016-Feb-09 13:50 190 12 5.4 5.0 Light rain showers.
2016-Feb-09 13:20 190 12 5.4 5.0 Showers in the vicinity.
2016-Feb-09 12:50 190 13 4.9 5.0 Light rain showers.
2016-Feb-09 12:20 180 11 5.4 5.0
2016-Feb-09 11:50 190 12 gusting 22 5.4 5.0
2016-Feb-09 11:20 180 10 5.4 5.0
2016-Feb-09 10:50 190 9 4.9 5.0 Light rain.
2016-Feb-09 10:20 190 12 5.4 5.0
2016-Feb-09 09:50 190 11 5.4 5.0
2016-Feb-09 09:20 200 11 5.4 5.0
2016-Feb-09 08:50 190 11 4.9 5.0
2016-Feb-09 08:20 190 13 4.9 5.0
2016-Feb-09 07:50 190 11 4.3 5.0 Light drizzle.
2016-Feb-09 06:50 180 11 1.9 4.0 Drizzle. Mist.
2016-Feb-09 06:20 170 9 3.2 4.0 Light rain drizzle.
2016-Feb-09 05:50 170 11 3.2 4.0 Light drizzle.
2016-Feb-09 05:20 160 11 2.7 4.0 Drizzle.
2016-Feb-09 04:50 170 12 2.3 4.0 Rain drizzle.
2016-Feb-09 04:20 170 11 3.8 3.0 Light rain drizzle.